This is the latest recevied weather packets stored in our database for station/object WA1OUI. If no packets are shown the sender has not sent any weather packets the latest 10 day(s).
| Time | Temp. | Humidity | Pressure | Rain* | Wind** | Luminosity | Snow |
|---|---|---|---|---|---|---|---|
| 1778000621 | 26.11° C | 43% | 1006.3 hPa | 0 mm | - | 768 W/m² | - |
| 1778000317 | 26.11° C | 42% | 1006.3 hPa | 0 mm | - | 771 W/m² | - |
| 1778000012 | 26.67° C | 41% | 1006.6 hPa | 0 mm | - | 772 W/m² | - |
| 1777999708 | 26.67° C | 42% | 1006.5 hPa | 0 mm | - | 778 W/m² | - |
| 1777999405 | 26.67° C | 44% | 1006.6 hPa | 0 mm | - | 774 W/m² | - |
| 1777999104 | 26.11° C | 41% | 1006.7 hPa | 0 mm | - | 776 W/m² | - |
| 1777998802 | 26.11° C | 44% | 1006.8 hPa | 0 mm | - | 775 W/m² | - |
| 1777998500 | 25.56° C | 44% | 1006.9 hPa | 0 mm | - | 777 W/m² | - |
| 1777998196 | 25.56° C | 44% | 1007 hPa | 0 mm | - | 771 W/m² | - |
| 1777997893 | 25.56° C | 46% | 1007.2 hPa | 0 mm | - | 771 W/m² | - |
| 1777997590 | 25.56° C | 47% | 1007.2 hPa | 0 mm | - | 777 W/m² | - |
| 1777997288 | 25.56° C | 45% | 1007.2 hPa | 0 mm | - | 774 W/m² | - |
| 1777996985 | 25.56° C | 45% | 1007.2 hPa | 0 mm | - | 772 W/m² | - |
| 1777996682 | 25.56° C | 43% | 1007.5 hPa | 0 mm | - | 773 W/m² | - |
| 1777996377 | 25° C | 44% | 1007.5 hPa | 0 mm | - | 766 W/m² | - |
| 1777996074 | 25° C | 45% | 1007.5 hPa | 0 mm | - | 761 W/m² | - |
| 1777995771 | 24.44° C | 47% | 1007.5 hPa | 0 mm | - | 755 W/m² | - |
| 1777995467 | 24.44° C | 47% | 1007.8 hPa | 0 mm | - | 744 W/m² | - |
| 1777995164 | 23.89° C | 49% | 1007.7 hPa | 0 mm | - | 733 W/m² | - |
| 1777994862 | 23.89° C | 50% | 1007.6 hPa | 0 mm | - | 720 W/m² | - |
| 1777994558 | 23.33° C | 50% | 1008 hPa | 0 mm | - | 712 W/m² | - |
| 1777994257 | 22.78° C | 53% | 1008.1 hPa | 0 mm | - | 715 W/m² | - |
| 1777993956 | 22.78° C | 53% | 1008.2 hPa | 0 mm | - | 706 W/m² | - |
| 1777993653 | 22.22° C | 54% | 1008.2 hPa | 0 mm | - | 687 W/m² | - |
| 1777993350 | 21.67° C | 55% | 1008.2 hPa | 0 mm | - | 687 W/m² | - |
* Rain latest hour (hover to see other rain measurements)
** Current wind speed in m/s (hover to see current wind gust speed)